| time (UTC) | temp C | wind direction | speed KPH | gust KPH | rain 1hr cm | rain 24hr cm | rain mn cm | humidity % | barometer mb |
| 20260505223906 | 21 | 282 | 8.0 | 8.0 | 0.00 | 0.00 | 0.00 | 48 | 1013.9 |
| 20260505223403 | 21 | 316 | 0.0 | 4.8 | 0.00 | 0.00 | 0.00 | 47 | 1014.2 |
| 20260505222859 | 21 | 98 | 0.0 | 6.4 | 0.00 | 0.00 | 0.00 | 40 | 1014.2 |
| 20260505222356 | 21 | 273 | 3.2 | 4.8 | 0.00 | 0.00 | 0.00 | 41 | 1014.1 |
| 20260505221852 | 21 | 280 | 3.2 | 8.0 | 0.00 | 0.00 | 0.00 | 41 | 1014.2 |
| 20260505221349 | 21 | 289 | 3.2 | 6.4 | 0.00 | 0.00 | 0.00 | 42 | 1014.5 |
| 20260505220846 | 21 | 285 | 6.4 | 17.7 | 0.00 | 0.00 | 0.00 | 39 | 1014.6 |
| 20260505220343 | 21 | 316 | 6.4 | 9.7 | 0.00 | 0.00 | 0.00 | 40 | 1014.4 |
| 20260505215841 | 21 | 267 | 6.4 | 9.7 | 0.00 | 0.00 | 0.00 | 41 | 1014.0 |
| 20260505215339 | 22 | 180 | 1.6 | 9.7 | 0.00 | 0.00 | 0.00 | 39 | 1013.9 |
| 20260505214837 | 22 | 309 | 4.8 | 9.7 | 0.00 | 0.00 | 0.00 | 38 | 1014.0 |
| 20260505214334 | 22 | 281 | 8.0 | 9.7 | 0.00 | 0.00 | 0.00 | 37 | 1014.1 |
| 20260505213831 | 22 | 256 | 8.0 | 17.7 | 0.00 | 0.00 | 0.00 | 36 | 1014.1 |
| 20260505213329 | 22 | 325 | 14.5 | 14.5 | 0.00 | 0.00 | 0.00 | 37 | 1014.0 |
| 20260505212824 | 22 | 265 | 4.8 | 11.3 | 0.00 | 0.00 | 0.00 | 37 | 1013.9 |
| 20260505212322 | 22 | 353 | 1.6 | 14.5 | 0.00 | 0.00 | 0.00 | 36 | 1013.8 |
| 20260505211818 | 22 | 279 | 6.4 | 9.7 | 0.00 | 0.00 | 0.00 | 37 | 1014.2 |
| 20260505211316 | 22 | 323 | 8.0 | 12.9 | 0.00 | 0.00 | 0.00 | 36 | 1014.2 |
| 20260505210812 | 22 | 247 | 3.2 | 9.7 | 0.00 | 0.00 | 0.00 | 37 | 1014.0 |
| 20260505210309 | 22 | 332 | 3.2 | 8.0 | 0.00 | 0.00 | 0.00 | 42 | 1014.1 |
| 20260505205806 | 23 | 275 | 12.9 | 24.1 | 0.00 | 0.00 | 0.00 | 35 | 1014.2 |
| 20260505205305 | 23 | 244 | 11.3 | 19.3 | 0.00 | 0.00 | 0.00 | 32 | 1014.1 |
| 20260505204800 | 23 | 260 | 9.7 | 11.3 | 0.00 | 0.00 | 0.00 | 36 | 1014.1 |
| 20260505204258 | 23 | 299 | 0.0 | 12.9 | 0.00 | 0.00 | 0.00 | 35 | 1014.0 |
| 20260505203755 | 23 | 343 | 1.6 | 22.5 | 0.00 | 0.00 | 0.00 | 30 | 1014.1 |
| 20260505203252 | 23 | 262 | 9.7 | 14.5 | 0.00 | 0.00 | 0.00 | 35 | 1014.0 |
| 20260505202749 | 23 | 347 | 1.6 | 12.9 | 0.00 | 0.00 | 0.00 | 37 | 1014.0 |
| 20260505202244 | 23 | 178 | 3.2 | 11.3 | 0.00 | 0.00 | 0.00 | 35 | 1013.9 |
| 20260505201741 | 23 | 255 | 9.7 | 9.7 | 0.00 | 0.00 | 0.00 | 40 | 1013.9 |
| 20260505201239 | 23 | 273 | 17.7 | 19.3 | 0.00 | 0.00 | 0.00 | 38 | 1014.0 |
| 20260505200737 | 23 | 329 | 8.0 | 16.1 | 0.00 | 0.00 | 0.00 | 40 | 1014.1 |
| 20260505200234 | 23 | 261 | 11.3 | 11.3 | 0.00 | 0.00 | 0.00 | 42 | 1014.4 |
| 20260505195729 | 23 | 254 | 6.4 | 19.3 | 0.00 | 0.00 | 0.00 | 39 | 1014.2 |
| 20260505195227 | 23 | 271 | 4.8 | 11.3 | 0.00 | 0.00 | 0.00 | 39 | 1014.5 |
| 20260505194724 | 23 | 290 | 6.4 | 17.7 | 0.00 | 0.00 | 0.00 | 36 | 1014.5 |
| 20260505194220 | 23 | 264 | 12.9 | 20.9 | 0.00 | 0.00 | 0.00 | 39 | 1014.2 |
| 20260505193716 | 23 | 275 | 4.8 | 9.7 | 0.00 | 0.00 | 0.00 | 38 | 1014.5 |
| 20260505193214 | 23 | 290 | 11.3 | 17.7 | 0.00 | 0.00 | 0.00 | 38 | 1014.8 |
| 20260505192712 | 22 | 274 | 8.0 | 8.0 | 0.00 | 0.00 | 0.00 | 40 | 1014.7 |
| 20260505192209 | 23 | 271 | 4.8 | 11.3 | 0.00 | 0.00 | 0.00 | 37 | 1014.9 |
| 20260505191708 | 23 | 313 | 3.2 | 6.4 | 0.00 | 0.00 | 0.00 | 44 | 1015.0 |
| 20260505191206 | 23 | 240 | 8.0 | 14.5 | 0.00 | 0.00 | 0.00 | 38 | 1015.0 |
| 20260505190702 | 23 | 169 | 3.2 | 17.7 | 0.00 | 0.00 | 0.00 | 40 | 1015.2 |
| 20260505190201 | 23 | 263 | 9.7 | 11.3 | 0.00 | 0.00 | 0.00 | 43 | 1015.2 |
| 20260505185658 | 23 | 293 | 9.7 | 20.9 | 0.00 | 0.00 | 0.00 | 41 | 1015.2 |
| 20260505185154 | 23 | 308 | 4.8 | 24.1 | 0.00 | 0.00 | 0.00 | 41 | 1015.2 |
| 20260505184651 | 22 | 224 | 11.3 | 20.9 | 0.00 | 0.00 | 0.00 | 42 | 1015.4 |
| 20260505184148 | 22 | 248 | 11.3 | 16.1 | 0.00 | 0.00 | 0.00 | 38 | 1014.9 |
| 20260505183645 | 23 | 332 | 3.2 | 14.5 | 0.00 | 0.00 | 0.00 | 42 | 1015.0 |
| 20260505183143 | 22 | 151 | 4.8 | 20.9 | 0.00 | 0.00 | 0.00 | 42 | 1015.2 |
| 20260505182638 | 22 | 262 | 12.9 | 17.7 | 0.00 | 0.00 | 0.00 | 42 | 1015.2 |
| 20260505182136 | 22 | 346 | 3.2 | 16.1 | 0.00 | 0.00 | 0.00 | 41 | 1015.3 |
| 20260505181632 | 22 | 311 | 8.0 | 12.9 | 0.00 | 0.00 | 0.00 | 41 | 1015.5 |
| 20260505181130 | 22 | 344 | 4.8 | 14.5 | 0.00 | 0.00 | 0.00 | 40 | 1015.5 |
| 20260505180625 | 22 | 317 | 8.0 | 16.1 | 0.00 | 0.00 | 0.00 | 43 | 1015.6 |
| 20260505180123 | 22 | 320 | 3.2 | 8.0 | 0.00 | 0.00 | 0.00 | 44 | 1015.8 |
| 20260505175619 | 21 | 300 | 9.7 | 24.1 | 0.00 | 0.00 | 0.00 | 41 | 1016.0 |
| 20260505175116 | 22 | 272 | 9.7 | 14.5 | 0.00 | 0.00 | 0.00 | 40 | 1016.0 |
| 20260505174612 | 22 | 315 | 3.2 | 11.3 | 0.00 | 0.00 | 0.00 | 39 | 1015.9 |
| 20260505174108 | 22 | 53 | 1.6 | 8.0 | 0.00 | 0.00 | 0.00 | 42 | 1016.2 |
| 20260505173605 | 22 | 279 | 11.3 | 12.9 | 0.00 | 0.00 | 0.00 | 36 | 1016.3 |
| 20260505173102 | 22 | 280 | 3.2 | 14.5 | 0.00 | 0.00 | 0.00 | 40 | 1016.3 |
| 20260505172600 | 22 | 258 | 11.3 | 11.3 | 0.00 | 0.00 | 0.00 | 37 | 1016.2 |
| 20260505172057 | 22 | 21 | 1.6 | 11.3 | 0.00 | 0.00 | 0.00 | 35 | 1016.2 |
| 20260505171556 | 22 | 78 | 6.4 | 14.5 | 0.00 | 0.00 | 0.00 | 38 | 1016.4 |
| 20260505171054 | 22 | 251 | 12.9 | 16.1 | 0.00 | 0.00 | 0.00 | 38 | 1016.3 |
| 20260505170551 | 22 | 56 | 6.4 | 16.1 | 0.00 | 0.00 | 0.00 | 41 | 1016.3 |
| 20260505170047 | 21 | 248 | 9.7 | 19.3 | 0.00 | 0.00 | 0.00 | 38 | 1016.4 |
| 20260505165542 | 22 | 346 | 3.2 | 16.1 | 0.00 | 0.00 | 0.00 | 37 | 1016.2 |
| 20260505165038 | 21 | 263 | 3.2 | 16.1 | 0.00 | 0.00 | 0.00 | 38 | 1016.2 |
| 20260505164535 | 21 | 263 | 8.0 | 14.5 | 0.00 | 0.00 | 0.00 | 38 | 1016.2 |
| 20260505164032 | 21 | 334 | 3.2 | 22.5 | 0.00 | 0.00 | 0.00 | 35 | 1016.2 |
| 20260505163531 | 22 | 248 | 3.2 | 9.7 | 0.00 | 0.00 | 0.00 | 37 | 1016.2 |
| 20260505163027 | 22 | 262 | 14.5 | 20.9 | 0.00 | 0.00 | 0.00 | 36 | 1016.6 |
| 20260505162521 | 22 | 28 | 16.1 | 16.1 | 0.00 | 0.00 | 0.00 | 37 | 1016.9 |
| 20260505162018 | 21 | 274 | 11.3 | 17.7 | 0.00 | 0.00 | 0.00 | 36 | 1016.5 |
| 20260505161514 | 21 | 310 | 11.3 | 19.3 | 0.00 | 0.00 | 0.00 | 36 | 1016.4 |
| 20260505161011 | 22 | 263 | 12.9 | 14.5 | 0.00 | 0.00 | 0.00 | 35 | 1016.4 |
| 20260505160510 | 21 | 321 | 8.0 | 11.3 | 0.00 | 0.00 | 0.00 | 35 | 1016.8 |
| 20260505152946 | 20 | 326 | 11.3 | 17.7 | 0.00 | 0.00 | 0.00 | 46 | 1016.7 |
| 20260505152443 | 20 | 331 | 6.4 | 12.9 | 0.00 | 0.00 | 0.00 | 49 | 1016.5 |
| 20260505151943 | 20 | 318 | 9.7 | 12.9 | 0.00 | 0.00 | 0.00 | 48 | 1016.6 |
| 20260505151439 | 20 | 308 | 9.7 | 9.7 | 0.00 | 0.00 | 0.00 | 53 | 1016.7 |
| 20260505150937 | 18 | 312 | 4.8 | 8.0 | 0.00 | 0.00 | 0.00 | 54 | 1017.0 |
| 20260505150434 | 19 | 1 | 0.0 | 4.8 | 0.00 | 0.00 | 0.00 | 54 | 1016.9 |
| 20260505140404 | 18 | 294 | 6.4 | 9.7 | 0.00 | 0.00 | 0.00 | 61 | 1016.5 |
| 20260505124817 | 9 | 345 | 0.0 | 3.2 | 0.00 | 0.00 | 0.00 | 98 | 1016.0 |
| 20260505124314 | 8 | 318 | 1.6 | 3.2 | 0.00 | 0.00 | 0.00 | 99 | 1016.2 |
| 20260505123810 | 8 | 305 | 1.6 | 3.2 | 0.00 | 0.00 | 0.00 | 99 | 1015.9 |
| 20260505123307 | 8 | 1 | 1.6 | 3.2 | 0.00 | 0.00 | 0.00 | 99 | 1015.9 |
| 20260505122803 | 7 | 353 | 0.0 | 1.6 | 0.00 | 0.00 | 0.00 | 99 | 1016.2 |
| 20260505122301 | 7 | 24 | 0.0 | 1.6 | 0.00 | 0.00 | 0.00 | 99 | 1015.9 |
| 20260505121756 | 7 | 326 | 0.0 | 1.6 | 0.00 | 0.00 | 0.00 | 99 | 1015.9 |
| 20260505121253 | 7 | 338 | 0.0 | 1.6 | 0.00 | 0.00 | 0.00 | 99 | 1015.9 |
| 20260505120750 | 6 | 317 | 1.6 | 3.2 | 0.00 | 0.00 | 0.00 | 99 | 1016.0 |
| 20260505120246 | 6 | 293 | 0.0 | 0.0 | 0.00 | 0.00 | 0.00 | 99 | 1016.2 |
| 20260505115745 | 6 | 53 | 0.0 | 1.6 | 0.00 | 0.00 | 0.00 | 98 | 1016.0 |
| 20260505115243 | 6 | 293 | 1.6 | 3.2 | 0.00 | 0.00 | 0.00 | 98 | 1016.0 |
| 20260505114740 | 5 | 305 | 1.6 | 3.2 | 0.00 | 0.00 | 0.00 | 98 | 1016.0 |
| 20260505114236 | 5 | 298 | 1.6 | 3.2 | 0.00 | 0.00 | 0.00 | 98 | 1015.9 |
| 20260505113733 | 5 | 304 | 0.0 | 3.2 | 0.00 | 0.00 | 0.00 | 98 | 1015.8 |
| 20260505113229 | 5 | 286 | 3.2 | 3.2 | 0.00 | 0.00 | 0.00 | 98 | 1015.9 |
| 20260505112725 | 5 | 64 | 1.6 | 1.6 | 0.00 | 0.00 | 0.00 | 98 | 1015.7 |
| 20260505112223 | 5 | 286 | 1.6 | 6.4 | 0.00 | 0.00 | 0.00 | 98 | 1015.5 |
| 20260505111723 | 5 | 240 | 0.0 | 1.6 | 0.00 | 0.00 | 0.00 | 98 | 1015.5 |
| 20260505111219 | 5 | 278 | 4.8 | 4.8 | 0.00 | 0.00 | 0.00 | 98 | 1015.5 |
| 20260505110715 | 5 | 307 | 3.2 | 3.2 | 0.00 | 0.00 | 0.00 | 98 | 1015.6 |
| 20260505110213 | 5 | 280 | 4.8 | 4.8 | 0.00 | 0.00 | 0.00 | 98 | 1015.4 |
| 20260505102148 | 5 | 274 | 3.2 | 3.2 | 0.00 | 0.00 | 0.00 | 98 | 1015.2 |
| 20260505101647 | 5 | 39 | 0.0 | 4.8 | 0.00 | 0.00 | 0.00 | 98 | 1015.2 |
| 20260505101143 | 5 | 279 | 3.2 | 3.2 | 0.00 | 0.00 | 0.00 | 98 | 1015.3 |
| 20260505100639 | 5 | 27 | 3.2 | 3.2 | 0.00 | 0.00 | 0.00 | 98 | 1015.3 |
| 20260505100136 | 5 | 285 | 3.2 | 3.2 | 0.00 | 0.00 | 0.00 | 98 | 1015.3 |
| 20260505095632 | 5 | 315 | 0.0 | 4.8 | 0.00 | 0.00 | 0.00 | 98 | 1015.4 |
| 20260505095129 | 5 | 305 | 3.2 | 3.2 | 0.00 | 0.00 | 0.00 | 98 | 1015.2 |
| 20260505094626 | 5 | 292 | 6.4 | 6.4 | 0.00 | 0.00 | 0.00 | 98 | 1015.3 |
| 20260505094122 | 5 | 65 | 0.0 | 3.2 | 0.00 | 0.00 | 0.00 | 98 | 1015.4 |
| 20260505093618 | 5 | 29 | 0.0 | 3.2 | 0.00 | 0.00 | 0.00 | 98 | 1015.4 |
| 20260505093115 | 5 | 308 | 0.0 | 4.8 | 0.00 | 0.00 | 0.00 | 98 | 1015.3 |
| 20260505092612 | 5 | 279 | 3.2 | 4.8 | 0.00 | 0.00 | 0.00 | 98 | 1015.2 |
| 20260505092112 | 5 | 253 | 3.2 | 4.8 | 0.00 | 0.00 | 0.00 | 98 | 1015.3 |
| 20260505091608 | 5 | 329 | 0.0 | 3.2 | 0.00 | 0.00 | 0.00 | 98 | 1015.4 |
| 20260505091106 | 5 | 297 | 3.2 | 3.2 | 0.00 | 0.00 | 0.00 | 97 | 1015.2 |
| 20260505090604 | 6 | 279 | 3.2 | 3.2 | 0.00 | 0.00 | 0.00 | 98 | 1015.4 |
| 20260505085559 | 6 | 306 | 1.6 | 1.6 | 0.00 | 0.00 | 0.00 | 97 | 1015.5 |
| 20260505085057 | 6 | 275 | 1.6 | 4.8 | 0.00 | 0.00 | 0.00 | 97 | 1015.6 |
| 20260505084555 | 6 | 302 | 0.0 | 3.2 | 0.00 | 0.00 | 0.00 | 97 | 1015.5 |
| 20260505084052 | 6 | 300 | 3.2 | 3.2 | 0.00 | 0.00 | 0.00 | 97 | 1015.6 |
| 20260505083549 | 6 | 261 | 1.6 | 3.2 | 0.00 | 0.00 | 0.00 | 97 | 1015.4 |
| 20260505083046 | 6 | 298 | 1.6 | 3.2 | 0.00 | 0.00 | 0.00 | 97 | 1015.5 |
| 20260505082542 | 6 | 273 | 1.6 | 3.2 | 0.00 | 0.00 | 0.00 | 97 | 1015.5 |
| 20260505082039 | 6 | 305 | 1.6 | 3.2 | 0.00 | 0.00 | 0.00 | 97 | 1015.4 |
| 20260505081535 | 6 | 289 | 3.2 | 3.2 | 0.00 | 0.00 | 0.00 | 97 | 1015.4 |
| 20260505081032 | 6 | 276 | 1.6 | 3.2 | 0.00 | 0.00 | 0.00 | 97 | 1015.4 |
| 20260505080528 | 6 | 309 | 1.6 | 3.2 | 0.00 | 0.00 | 0.00 | 97 | 1015.5 |
| 20260505080025 | 6 | 303 | 1.6 | 3.2 | 0.00 | 0.00 | 0.00 | 97 | 1015.4 |
| 20260505075521 | 6 | 274 | 1.6 | 3.2 | 0.00 | 0.00 | 0.00 | 97 | 1015.3 |
| 20260505075018 | 6 | 298 | 0.0 | 3.2 | 0.00 | 0.00 | 0.00 | 97 | 1015.4 |
| 20260505074515 | 6 | 315 | 3.2 | 3.2 | 0.00 | 0.00 | 0.00 | 97 | 1015.5 |
| 20260505074013 | 6 | 319 | 3.2 | 4.8 | 0.00 | 0.00 | 0.00 | 97 | 1015.5 |
| 20260505073510 | 6 | 247 | 3.2 | 3.2 | 0.00 | 0.00 | 0.00 | 97 | 1015.5 |
| 20260505073008 | 6 | 286 | 3.2 | 3.2 | 0.00 | 0.00 | 0.00 | 97 | 1015.7 |
| 20260505072503 | 6 | 298 | 3.2 | 3.2 | 0.00 | 0.00 | 0.00 | 97 | 1015.5 |
| 20260505071959 | 6 | 274 | 1.6 | 3.2 | 0.00 | 0.00 | 0.00 | 96 | 1015.5 |
| 20260505071455 | 6 | 299 | 1.6 | 3.2 | 0.00 | 0.00 | 0.00 | 96 | 1015.4 |
| 20260505070954 | 6 | 306 | 1.6 | 3.2 | 0.00 | 0.00 | 0.00 | 96 | 1015.6 |
| 20260505070450 | 6 | 292 | 3.2 | 4.8 | 0.00 | 0.00 | 0.00 | 96 | 1015.4 |
| 20260505065946 | 6 | 303 | 3.2 | 4.8 | 0.00 | 0.00 | 0.00 | 96 | 1015.3 |
| 20260505065443 | 6 | 280 | 3.2 | 3.2 | 0.00 | 0.00 | 0.00 | 96 | 1015.3 |
| 20260505064939 | 6 | 297 | 3.2 | 4.8 | 0.00 | 0.00 | 0.00 | 96 | 1015.5 |
| 20260505064436 | 6 | 282 | 3.2 | 3.2 | 0.00 | 0.00 | 0.00 | 96 | 1015.4 |
| 20260505063935 | 7 | 282 | 1.6 | 3.2 | 0.00 | 0.00 | 0.00 | 96 | 1015.3 |
| 20260505063431 | 7 | 284 | 3.2 | 4.8 | 0.00 | 0.00 | 0.00 | 96 | 1015.3 |
| 20260505062927 | 7 | 296 | 1.6 | 3.2 | 0.00 | 0.00 | 0.00 | 96 | 1015.1 |
| 20260505062425 | 7 | 282 | 0.0 | 3.2 | 0.00 | 0.00 | 0.00 | 96 | 1015.4 |
| 20260505061921 | 7 | 279 | 3.2 | 3.2 | 0.00 | 0.00 | 0.00 | 96 | 1015.6 |
| 20260505061420 | 7 | 324 | 1.6 | 3.2 | 0.00 | 0.00 | 0.00 | 96 | 1015.6 |
| 20260505060917 | 7 | 299 | 1.6 | 3.2 | 0.00 | 0.00 | 0.00 | 96 | 1015.6 |
| 20260505060414 | 7 | 293 | 4.8 | 4.8 | 0.00 | 0.00 | 0.00 | 96 | 1015.6 |
| 20260505055910 | 7 | 281 | 3.2 | 3.2 | 0.00 | 0.00 | 0.00 | 95 | 1015.7 |
| 20260505055406 | 7 | 305 | 1.6 | 3.2 | 0.00 | 0.00 | 0.00 | 95 | 1015.7 |
| 20260505054903 | 7 | 335 | 1.6 | 3.2 | 0.00 | 0.00 | 0.00 | 96 | 1015.7 |
| 20260505054400 | 7 | 315 | 0.0 | 3.2 | 0.00 | 0.00 | 0.00 | 95 | 1015.7 |
| 20260505053858 | 7 | 279 | 3.2 | 3.2 | 0.00 | 0.00 | 0.00 | 95 | 1015.6 |
| 20260505053355 | 7 | 298 | 3.2 | 3.2 | 0.00 | 0.00 | 0.00 | 95 | 1015.9 |
| 20260505052852 | 7 | 278 | 3.2 | 3.2 | 0.00 | 0.00 | 0.00 | 95 | 1015.8 |
| 20260505052349 | 7 | 296 | 1.6 | 3.2 | 0.00 | 0.00 | 0.00 | 95 | 1015.8 |
| 20260505051846 | 7 | 354 | 0.0 | 3.2 | 0.00 | 0.00 | 0.00 | 95 | 1015.9 |
| 20260505051343 | 7 | 307 | 3.2 | 3.2 | 0.00 | 0.00 | 0.00 | 94 | 1015.8 |
| 20260505050841 | 7 | 288 | 3.2 | 3.2 | 0.00 | 0.00 | 0.00 | 94 | 1015.7 |
| 20260505050340 | 7 | 305 | 1.6 | 3.2 | 0.00 | 0.00 | 0.00 | 94 | 1015.5 |
| 20260505041306 | 8 | 290 | 1.6 | 3.2 | 0.00 | 0.00 | 0.00 | 92 | 1015.4 |
| 20260505040804 | 8 | 292 | 3.2 | 3.2 | 0.00 | 0.00 | 0.00 | 92 | 1015.7 |
| 20260505040301 | 8 | 329 | 0.0 | 3.2 | 0.00 | 0.00 | 0.00 | 92 | 1015.6 |
| 20260505035758 | 8 | 313 | 0.0 | 3.2 | 0.00 | 0.00 | 0.00 | 92 | 1015.7 |
| 20260505035253 | 9 | 281 | 0.0 | 1.6 | 0.00 | 0.00 | 0.00 | 91 | 1015.8 |
| 20260505034751 | 9 | 326 | 0.0 | 3.2 | 0.00 | 0.00 | 0.00 | 91 | 1015.6 |
| 20260505034248 | 9 | 299 | 0.0 | 3.2 | 0.00 | 0.00 | 0.00 | 91 | 1015.6 |
| 20260505033744 | 9 | 17 | 0.0 | 3.2 | 0.00 | 0.00 | 0.00 | 91 | 1015.7 |
| 20260505033242 | 9 | 289 | 3.2 | 3.2 | 0.00 | 0.00 | 0.00 | 90 | 1015.7 |
| 20260505032740 | 9 | 312 | 0.0 | 3.2 | 0.00 | 0.00 | 0.00 | 90 | 1015.8 |
| 20260505032235 | 10 | 307 | 3.2 | 3.2 | 0.00 | 0.00 | 0.00 | 90 | 1015.9 |
| 20260505031733 | 10 | 269 | 0.0 | 3.2 | 0.00 | 0.00 | 0.00 | 90 | 1015.8 |
| 20260505031229 | 10 | 302 | 1.6 | 4.8 | 0.00 | 0.00 | 0.00 | 89 | 1015.7 |
| 20260505030726 | 10 | 296 | 3.2 | 3.2 | 0.00 | 0.00 | 0.00 | 89 | 1015.8 |
| 20260505030222 | 10 | 298 | 1.6 | 4.8 | 0.00 | 0.00 | 0.00 | 89 | 1015.9 |
| 20260505025718 | 10 | 309 | 3.2 | 3.2 | 0.00 | 0.00 | 0.00 | 89 | 1015.8 |
| 20260505025217 | 10 | 296 | 1.6 | 3.2 | 0.00 | 0.00 | 0.00 | 88 | 1015.7 |
| 20260505024714 | 10 | 286 | 0.0 | 3.2 | 0.00 | 0.00 | 0.00 | 88 | 1015.6 |
| 20260505024211 | 10 | 269 | 0.0 | 3.2 | 0.00 | 0.00 | 0.00 | 87 | 1015.7 |
| 20260505023709 | 10 | 308 | 3.2 | 3.2 | 0.00 | 0.00 | 0.00 | 87 | 1015.8 |
| 20260505023206 | 10 | 321 | 1.6 | 3.2 | 0.00 | 0.00 | 0.00 | 86 | 1015.7 |
| 20260505022703 | 10 | 326 | 0.0 | 3.2 | 0.00 | 0.00 | 0.00 | 86 | 1015.7 |
| 20260505022200 | 11 | 315 | 3.2 | 3.2 | 0.00 | 0.00 | 0.00 | 86 | 1015.7 |
| 20260505021656 | 11 | 290 | 3.2 | 3.2 | 0.00 | 0.00 | 0.00 | 85 | 1015.6 |
| 20260505021154 | 11 | 284 | 0.0 | 3.2 | 0.00 | 0.00 | 0.00 | 85 | 1015.7 |
| 20260505020649 | 11 | 295 | 3.2 | 3.2 | 0.00 | 0.00 | 0.00 | 84 | 1015.5 |
| 20260505020145 | 11 | 321 | 0.0 | 4.8 | 0.00 | 0.00 | 0.00 | 83 | 1015.5 |
| 20260505015643 | 11 | 314 | 3.2 | 4.8 | 0.00 | 0.00 | 0.00 | 83 | 1015.5 |
| 20260505015139 | 11 | 307 | 3.2 | 3.2 | 0.00 | 0.00 | 0.00 | 81 | 1015.3 |
| 20260505014636 | 11 | 295 | 0.0 | 3.2 | 0.00 | 0.00 | 0.00 | 80 | 1015.4 |
| 20260505014133 | 12 | 291 | 1.6 | 3.2 | 0.00 | 0.00 | 0.00 | 80 | 1015.4 |
| 20260505013631 | 12 | 289 | 3.2 | 3.2 | 0.00 | 0.00 | 0.00 | 79 | 1015.4 |
| 20260505013127 | 12 | 310 | 0.0 | 3.2 | 0.00 | 0.00 | 0.00 | 78 | 1015.1 |
| 20260505012626 | 12 | 306 | 3.2 | 3.2 | 0.00 | 0.00 | 0.00 | 77 | 1015.3 |
| 20260505012122 | 12 | 303 | 0.0 | 3.2 | 0.00 | 0.00 | 0.00 | 76 | 1015.3 |
| 20260505011618 | 12 | 300 | 3.2 | 3.2 | 0.00 | 0.00 | 0.00 | 75 | 1015.1 |
| 20260505011115 | 13 | 303 | 3.2 | 3.2 | 0.00 | 0.00 | 0.00 | 72 | 1015.2 |
| 20260505010610 | 13 | 297 | 3.2 | 3.2 | 0.00 | 0.00 | 0.00 | 72 | 1015.2 |
| 20260505010108 | 13 | 313 | 3.2 | 3.2 | 0.00 | 0.00 | 0.00 | 71 | 1015.1 |
| 20260505005604 | 13 | 296 | 1.6 | 3.2 | 0.00 | 0.00 | 0.00 | 70 | 1015.1 |
| 20260505005101 | 14 | 302 | 1.6 | 3.2 | 0.00 | 0.00 | 0.00 | 67 | 1015.0 |
| 20260505004558 | 15 | 296 | 3.2 | 3.2 | 0.00 | 0.00 | 0.00 | 65 | 1015.2 |
| 20260505004055 | 15 | 292 | 1.6 | 3.2 | 0.00 | 0.00 | 0.00 | 64 | 1015.1 |
| 20260505003552 | 15 | 298 | 3.2 | 3.2 | 0.00 | 0.00 | 0.00 | 65 | 1014.9 |
| 20260505003049 | 16 | 310 | 3.2 | 4.8 | 0.00 | 0.00 | 0.00 | 61 | 1015.0 |
| 20260505002549 | 16 | 299 | 3.2 | 3.2 | 0.00 | 0.00 | 0.00 | 59 | 1014.9 |
| 20260505002049 | 16 | 286 | 1.6 | 3.2 | 0.00 | 0.00 | 0.00 | 59 | 1014.9 |
| 20260505001546 | 17 | 293 | 3.2 | 3.2 | 0.00 | 0.00 | 0.00 | 59 | 1014.9 |
| 20260505001043 | 17 | 269 | 0.0 | 1.6 | 0.00 | 0.00 | 0.00 | 58 | 1014.7 |
| 20260505000540 | 17 | 217 | 0.0 | 3.2 | 0.00 | 0.00 | 0.00 | 63 | 1014.9 |
| 20260505000038 | 18 | 310 | 3.2 | 4.8 | 0.00 | 0.00 | 0.00 | 55 | 1014.9 |
| 20260504235534 | 18 | 53 | 1.6 | 1.6 | 0.00 | 0.00 | 0.00 | 55 | 1014.8 |
| 20260504235031 | 18 | 211 | 0.0 | 4.8 | 0.00 | 0.00 | 0.00 | 56 | 1014.9 |
| 20260504234528 | 20 | 300 | 4.8 | 4.8 | 0.00 | 0.00 | 0.00 | 52 | 1014.9 |
| 20260504234025 | 21 | 218 | 1.6 | 3.2 | 0.00 | 0.00 | 0.00 | 54 | 1014.9 |
| 20260504233520 | 21 | 251 | 9.7 | 14.5 | 0.00 | 0.00 | 0.00 | 40 | 1014.8 |
| 20260504233017 | 21 | 283 | 8.0 | 8.0 | 0.00 | 0.00 | 0.00 | 39 | 1014.9 |
| 20260504232514 | 22 | 280 | 3.2 | 8.0 | 0.00 | 0.00 | 0.00 | 41 | 1015.0 |
| 20260504232012 | 22 | 220 | 1.6 | 4.8 | 0.00 | 0.00 | 0.00 | 42 | 1014.8 |
| 20260504231508 | 22 | 282 | 3.2 | 12.9 | 0.00 | 0.00 | 0.00 | 44 | 1014.8 |
| 20260504231004 | 21 | 274 | 3.2 | 6.4 | 0.00 | 0.00 | 0.00 | 46 | 1014.7 |
| 20260504230501 | 21 | 194 | 0.0 | 9.7 | 0.00 | 0.00 | 0.00 | 43 | 1014.6 |
| 20260504230000 | 21 | 278 | 3.2 | 9.7 | 0.00 | 0.00 | 0.00 | 45 | 1014.6 |
| 20260504225456 | 22 | 311 | 4.8 | 9.7 | 0.00 | 0.00 | 0.00 | 43 | 1014.5 |
| 20260504224954 | 22 | 346 | 1.6 | 6.4 | 0.00 | 0.00 | 0.00 | 43 | 1014.7 |
| 20260504224450 | 21 | 307 | 1.6 | 3.2 | 0.00 | 0.00 | 0.00 | 43 | 1014.5 |